Location: Unspecified
(0.0000°N, 0.0000°E)
Time: 23:56:20
(UTC+00:00)

Vanguard 2 - Pass Details

Date: 04 October 2020
Orbit: 554 x 2937 km, 32.9° (Epoch: 28 October)

Event Time Altitude Azimuth Distance (km) Brightness Sun altitude
Rises 14:54:34 0° 239° (WSW) 3,796 11.8 43.3°
Reaches altitude 10° 15:00:09 10° 203° (SSW) 3,427 11.3 41.9°
Maximum altitude 15:02:08 11° 189° (S) 3,569 11.2 41.4°
Drops below altitude 10° 15:04:20 10° 176° (S) 3,858 11.2 40.9°
Sets 15:12:45 0° 145° (SE) 5,639 11.7 38.8°
